Location: Unspecified
(0.0000°N, 0.0000°E)
Time: 17:47:59
(UTC+00:00)

STARLINK 1042 - Pass Details

Date: 24 January 2020
Orbit: 548 x 551 km, 53.0° (Epoch: 17 January)

Event Time Altitude Azimuth Distance (km) Brightness Sun altitude
Exits shadow 04:43:13 14° 9° (N) 1,550 5.8 -20.9°
Drops below altitude 10° 04:43:56 10° 13° (NNE) 1,807 6.2 -20.7°
Sets 04:46:16 0° 21° (NNE) 2,696 7.2 -20.1°
